La Barousse Balès - 12/08/2012

Cyclosportive 117 Km


Pl Do. Nom - Surname Prénom - Name S-Cat /cat Club - Team TEMPS - Time Km/h /sx
1 676 COUTINHO AUGUSTE MC 1 PYRENEES IN TEAM 03:39:44 31,9 1
2 722 CASAS LUCAS MA 1 ESPAGNE 03:39:44 31,9 2
3 515 COLLET NICOLAS MB 1 NL 03:42:24 31,6 3
4 673 COUTINHO PHILIPPE MC 2 PYRÉNEES IN TEAM 03:43:00 31,5 4
5 657 FLORES COUDERC GÉRAUD   1 NL 03:44:46 31,2 5
6 611 MITXELENA LUCIANO ME 1 ESPAGNE 03:45:57 31,1 6
7 362 MARMOUGET CLAUDE MC 3 TEAM BAROUSSE 65 03:47:50 30,8 7
8 704 CORATGER THOMS MA 2 AS MURET 03:47:50 30,8 8
9 411 BONNET JEAN-LUC MB 2 BALMA VELO SPRINT 03:47:51 30,8 9
10 644 CARRERE CHRISTOPHE MC 4 ST-JORY CYCLOTOURISME 03:48:03 30,8 10
11 682 EYCHENNE CHRISTIAN MD 1 NL 03:48:04 30,8 11
12 591 FOURCAUD ERIC MC 5 CYCLO CLUB TRAIS 03:48:04 30,8 12
13 369 PLANCHOU FABRICE MC 6 AS MATRA TOULOUSE 03:48:05 30,8 13
14 615 MITXELENA JOSE ANGEL MC 7 ESPAGNE 03:49:55 30,5 14
15 629 CAMBUS NICOLAS MA 3 CAP VERT VTT 03:50:32 30,4 15
16 635 BORIE PIERRE MA 4 MONTREJEAU CYCLO CLUB 03:51:21 30,3 16
17 669 LONCKE JÉRÔME MB 3 NL 03:51:22 30,3 17
18 700 PIERRAU RAPHAEL MC 8 AS MURET 03:51:22 30,3 18
19 628 CAUBET NICOLAS MA 5 UV LECTOURE 03:51:45 30,3 19
20 441 RICAUD MATHIEU MA 6 VCL LANNEMEZAN 03:52:01 30,3 20
21 606 RENAULT LUCAS MA 7 ST-GO CYCLISME 03:52:02 30,3 21
22 384 HALL STEVEN MC 9 U.V. LOURDES 03:52:03 30,3 22
23 683 BROS DAVID MB 4 ITZUL TA ZAPA 03:52:03 30,3 23
24 646 BRUGUIERE FRANCK MA 8 GPCC 03:52:53 30,1 24
25 717 PENDERY ANDRÉW MD 2 NL 03:52:57 30,1 25
26 350 GONCALVÈS GILLES MD 3 CABE 47 03:53:08 30,1 26
27 471 CROUZET GASTON MD 4 PYRENEES TEAM LUCHON 03:53:09 30,1 27
28 643 SOULÉ JULIEN MA 9 DEJANTÉ 65 03:53:12 30,1 28
29 726 PASCAU JOEL MA 10 PYRENNEES TEAM LUCHON 03:53:16 30,1 29
30 709 FESQUET SYVAIN MA 11 AS MURET 03:56:15 29,7 30
31 493 DIMNET MARTIN MA 12 NL 03:56:16 29,7 31
32 353 GROSJEAN JACQUES MD 5 V.C. FONBEAUZARD 03:56:17 29,7 32
33 574 BAYLE LAURENT MC 10 VCCA BIGANOS 03:57:01 29,6 33
34 698 SANCHEZ FABRICE MB 5 MURET AS 03:57:01 29,6 34
35 475 LESSMANN PASCAL MC 11 U.V. AUCHE 03:57:02 29,6 35
36 558 SAJAS PATRICK MC 12 ST-GO CYCLISME 03:57:02 29,6 36
37 708 ALLEMAND ARNAUD MA 13 AS MURET 03:57:53 29,5 37
38 402 BOISSE PASCAL MC 13 PYRENEES TEAM LUCHON 03:58:16 29,5 38
39 711 DELMAS OLIVIER MC 14 MURET CYCLISTE 03:58:18 29,5 39
40 316 D'ANGELO DAMIEN MA 14 NL 03:58:18 29,5 40
41 481 ANTONIOU BENOIT MC 15 ST-MEDARD SPORT 03:58:54 29,4 41
42 725 BARRERE VINCENT MB 6 AC LE FOUSSERET 04:00:34 29,2 42
43 641 UGOLINI SEBASTIEN MA 15 CO CARBONNE 04:00:34 29,2 43
44 576 SABATHE PAUL MB 7 LUCHON LOURON CYCLISME 04:00:35 29,2 44
45 686 CALLAS DE GASPERIS XAVIER MB 8 UV AUCH 04:00:46 29,2 45
46 667 MATHIEU DIDIER MC 16 NL 04:01:15 29,1 46
47 613 ZELAIETA GAIZKA MB 9 ESPAGNE 04:01:16 29,1 47
48 581 OLLIER CHRISTOPHE MC 17 MONTREJEAU CYCLO CLUB 04:01:17 29,1 48
49 510 MAZET CHRISTOPHE MB 10 COUSERANS CYCLISME 04:01:18 29,1 49
50 494 FRANTZ MICHEL MC 18 GOURDON CYCLISME 04:01:20 29,1 50
51 527 MARTIN JEAN-NOEL MD 6 U.S. TYROSSAISE 04:03:27 28,8 51
52 713 HUET DANIEL MA 16 VCF FECAMP 04:03:33 28,8 52
53 714 MAGENDIE DIDIER MC 19 C C LOURDAIS 04:04:42 28,7 53
54 724 MIQUEL DANIEL MD 7 CF FOUSSERET 04:04:43 28,7 54
55 526 GEZ FRÉDÉRIC MC 20 AVENIR CYCLISTE BAGNERES BIGORRE 04:04:44 28,7 55
56 718 EMPORTES PATRICE MB 11 LUCHON LOURON CYCLISME 04:04:45 28,7 56
57 689 ADDINSELL JULIEN MB 12 NL 04:04:54 28,7 57
58 309 COULY EMMANUEL MA 17 BALMA VELO SPRINT 04:04:57 28,7 58
59 499 COURRIEU JEAN MICHEL MC 21 NL 04:05:46 28,6 59
60 352 MILHORAT YANNICK MB 13 NL 04:06:12 28,5 60
61 525 LATTÉ OLIVIER MB 14 GUIDON CYCLO PYRÉNÉEN 04:06:13 28,5 61
62 495 THORE JEAN-PHILIPPE MD 8 F.J.E.P. DE VARILHES 04:06:16 28,5 62
63 614 PIKABEA JOSEBA MA 18 ESPAGNE 04:06:18 28,5 63
64 627 LLORET JÉROME MB 15 NL 04:06:27 28,5 64
65 565 TANSIN LEWIS FW1 1 NL 04:06:48 28,4 1
66 661 BUZY HENRI MD 9 CYCLO CLUB PONTAQUAIS 04:07:04 28,4 65
67 323 MANSAS JEAN LUC MC 22 BALMA OLYMPIQUE 04:07:20 28,4 66
68 612 ETXENIKE PATXI MC 23 ESPAGNE 04:08:46 28,2 67
69 691 BOUÉ MARC MC 24 NL 04:08:47 28,2 68
70 647 FAJOL JEROME MB 16 SAINT-ASTIER 04:08:47 28,2 69
71 720 MIAHLES OLIVIER MC 25 ACF LE FOUSSERET 04:09:46 28,1 70
72 382 MALLET ERIC MC 26 V.P. PERIGORD 04:09:55 28,1 71
73 642 LABASSA FABRICE MC 27 NL 04:09:56 28,1 72
74 696 TACHON GILLES MC 28 NL 04:09:57 28,1 73
75 398 FELTRIN PATRICE MC 29 CYCLO VTT FLEURANCE 04:10:06 28,1 74
76 379 PETITE MARC MA 19 NL 04:10:09 28,1 75
77 472 PECQUEUR DIDIER MD 10 AVENIR BIZANOS 04:10:10 28,1 76
78 609 NOGUES YVES MD 11 NL 04:10:58 28,0 77
79 415 LOUP CHRISTIAN MC 30 NL 04:11:42 27,9 78
80 617 BOUSQUET BENOIT MA 20 GRATELOUP VC 04:11:49 27,9 79
81 703 ROPERT YANNICK MB 17 V C CASTRAIS 04:11:51 27,9 80
82 693 GERMANIER GÉRARD MD 12 MONTESQUIEU 04:11:52 27,9 81
83 701 CASTERAN THIERRY MC 31 PYRENEES TEAM LUCHON 04:11:53 27,9 82
84 604 FAVAREL JULIEN MA 21 GPCC 04:11:57 27,9 83
85 562 LLORET MICHEL ME 2 POC COTE DE LUMIERE 04:12:05 27,8 84
86 592 MAUGER LIONEL MB 18 NL 04:12:31 27,8 85
87 548 LABISTE GABRIEL MC 32 NL 04:13:43 27,7 86
88 370 JUSTE DAVID MC 33 MONTREJEAU CYCLO CLUB 04:13:43 27,7 87
89 524 MERIADE LAURENT MC 34 EC LUC PRIMAUBE 04:13:44 27,7 88
90 555 DE BORTOLI PATRICE MD 13 ASS SPORT TESTERINE 04:13:44 27,7 89
91 518 RENAUDIN NICOLAS MB 19 U.S. COLOMIERS CYCLISTE 04:13:46 27,7 90
92 360 FAVEREAU JEAN-JACQUES MD 14 U.S. PLAISANCE 04:13:51 27,7 91
93 607 IDIART DANIEL MC 35 CA BEGLAIS 04:14:44 27,6 92
94 699 MINET MARC MB 20 TC COINCY METZ 04:15:18 27,5 93
95 340 MAUREL THOMAS MB 21 BALMA VELO SPRINT 04:15:30 27,5 94
96 554 SANCHEZ RUFINO MD 15 MCC 04:16:39 27,4 95
97 564 DILLOR STVART MB 22 LONDON 04:16:47 27,3 96
98 553 VENUTO GERARD MD 16 NL 04:17:03 27,3 97
99 681 FINOS JOEL MD 17 VCRO ROQUETTES 04:17:59 27,2 98
100 427 FERRARONI JEROME MB 23 C.C. DES VIOLETTES 04:18:15 27,2 99
101 589 LACROIX LUDOVIC MB 24 ROUE LIBRE SAMAN 04:18:39 27,1 100
102 351 ROURA EDOUARD MD 18 MURET CYCLISTE 04:19:30 27,1 101
103 477 BOITEUX FLORENT MC 36 AC BAGNERES DE BIGORRE 04:19:40 27,0 102
104 420 LABESQUE FAURE PHILIPPE MD 19 NL 04:19:43 27,0 103
105 506 BOUSSIOUX JEAN-CHRISTIAN MC 37 CYCLO VTT FLEURANCE 04:19:43 27,0 104
106 674 VICTOR CHRISTELLE FW1 2 MONTAUBAN CYCLISTE 04:19:46 27,0 2
107 433 DUBOSC CHRISTIAN MC 38 C.C. PYRENEEN 04:19:48 27,0 105
108 543 SODRICH SERGE MC 39 NL 04:19:48 27,0 106
109 442 PAYRAULT GERVAIS MD 20 NL 04:19:48 27,0 107
110 403 LOUBET JEAN-BERTRAND MB 25 ST-GO CYCLISME 04:19:50 27,0 108
111 391 MEDAN CARLOS MD 21 NL 04:20:41 26,9 109
112 422 RIVA SERGE MC 40 CYCLO VTT FLEURANCE 04:20:58 26,9 110
113 645 MAUPOMÉ DANIEL MB 26 DÉJANTÉS 65 04:21:01 26,9 111
114 563 HERVAS STÉPHANE MB 27 MONTREJEAU CYCLO CLUB 04:21:01 26,9 112
115 326 SIFFRE JEAN MARIE MC 41 G.S. COURSAN NARBONNE 04:21:02 26,9 113
116 436 ACAP REMY MD 22 COUSERANS CYCLISME 04:21:03 26,9 114
117 595 LAROUSSE BERTRAND MD 23 NL 04:21:04 26,9 115
118 688 DE LA TORRE DANIEL ME 3 AVENIR CYCLISTE BIGORRE 04:21:05 26,9 116
119 630 LE TOLLEC STÉPHANE MD 24 BALMA VELO SPRINT 04:22:27 26,7 117
120 419 BERAUD PASCAL MD 25 AVENIR FONSORBAIS 04:22:35 26,7 118
121 439 MONTASTRUC LUDOVIC MB 28 AMICALE CYCLO ESCALQUENS 04:22:54 26,7 119
122 721 LOZE LUDIVINE FW1 3 MONTAUBAN CYCLISTE 04:22:55 26,7 3
123 383 STANHOPE RICHARD MD 26 NL 04:23:08 26,7 120
124 476 GAY STÉPHANE MB 29 NL 04:23:08 26,7 121
125 453 CAPDEVIELLE DIDIER MD 27 CYCLO ROUE LIBRE 04:23:09 26,7 122
126 685 DIHBARBE NICOLAS MB 30 UATTRI 04:23:09 26,7 123
127 702 DUPUY FLORIAN MA 22 NL 04:23:09 26,7 124
128 697 JULIA BRUNO MC 42 CCC 31 04:23:10 26,7 125
129 488 MORRELL SAMUEL MA 23 NL 04:23:11 26,7 126
130 504 TOURNOU STEPHANE MB 31 COUSERANS CYCLISME 04:23:16 26,7 127
131 528 DELMAS HUBERT ME 4 LABARTHE CYCLO 04:23:19 26,7 128
132 625 SALLERES BERNARD MC 43 NL 04:24:08 26,6 129
133 619 SOUSSENS SYLVAIN MB 32 GRATELOUP VC 04:25:09 26,5 130
134 692 GUAL JOSÉ LUIS MC 44 NL 04:25:09 26,5 131
135 605 TREVISAN CEDRIC MB 33 NL 04:25:11 26,5 132
136 354 DIEU CHRISTOPHE MC 45 ST-GO CYCLISME 04:25:18 26,5 133
137 716 RODIER GILLES MC 46 LAVAUR V C 04:25:19 26,5 134
138 417 CAZAËNTRE JOËL MD 28 NL 04:25:19 26,5 135
139 431 BARON PHILIPPE MA 24 AVENIR FONSORBAIS 04:25:45 26,4 136
140 452 DUCOS JEAN CLAUDE MD 29 COUSERANS CYCLISME 04:26:21 26,4 137
141 322 THAIS LAURENT MC 47 NL 04:29:19 26,1 138
142 616 GUILLEMOTONIA JEAN MC 48 NL 04:30:12 26,0 139
143 479 JAMES ROBERT ME 5 LUCHON LOURON CYCLISME 04:30:28 26,0 140
144 366 MARTIN STÉPHANE MB 34 AS MATRA TOULOUSE 04:30:53 25,9 141
145 387 ZELLER MANUEL MA 25 NL 04:31:14 25,9 142
146 590 SOULÉ GUILLAUME MA 26 MONTREJEAU CYCLO CLUB 04:31:42 25,8 143
147 658 GUICHEUX JOEL MC 49 LESCAR V SPRINT 04:31:55 25,8 144
148 397 MONTANÉ ALAIN MC 50 ASS CYCLISTE SALISIENNE 04:31:56 25,8 145
149 410 BOUCHER JÉRÉMIE MB 35 NL 04:32:25 25,8 146
150 675 TROCH JOSÉ MC 51 COC CARBONNE 04:33:00 25,7 147
151 573 MITERNIQUE LAURENT MC 52 SCP CYCLISME PLAISANCE 04:33:30 25,7 148
152 626 SINGH FLORIAN MB 36 NL 04:33:30 25,7 149
153 603 BONTEMPS JULIEN MA 27 GPCC 04:33:33 25,7 150
154 487 MASSAT PATRICK MD 30 NL 04:34:51 25,5 151
155 532 CAZENAVE JEAN-CLAUDE ME 6 C.C LOURDAIS 04:35:11 25,5 152
156 668 CHATELUT PIERRE MD 31 NL 04:35:12 25,5 153
157 650 BOER PATRICE MC 53 C C ATURIN 04:35:52 25,4 154
158 332 HERVIO PHILIPPE MC 54 NL 04:35:55 25,4 155
159 385 MARTY CÉDRIC MB 37 SAUBENS CYCLO 04:35:56 25,4 156
160 664 LONCKE CHRISTIAN MD 32 UV AUCH 04:36:01 25,4 157
161 694 FREIRE LARRASQUEIRA JOSÉ CARLOS MC 55 PC PYRENEEN 04:36:02 25,4 158
162 371 BOTTAREL DIDIER MC 56 MONTASTRUC C. VELOCIPEDE 04:36:16 25,4 159
163 706 ZANGHIERI SÉVERINE FW2 1 COUSERANS CYCLISME 04:37:29 25,3 4
164 580 FARGES JOHN MB 38 CSA 13 RDP 04:37:34 25,3 160
165 400 BARTHET GUILLAUME MA 28 BALMA VELO SPRINT 04:37:46 25,3 161
166 489 BARON SERGE MD 33 CYCLO ROUE LIBRE 04:37:49 25,3 162
167 440 PORTOLES MARC MB 39 NL 04:37:49 25,3 163
168 654 GUILLON PHILIPPE MD 34 CPRS PIN JUSTARET 04:38:13 25,2 164
169 496 DUCOS THIERRY MD 35 COUSERANS CYCLISME 04:38:16 25,2 165
170 437 PONTICO FRÉDÉRIC MB 40 NL 04:38:30 25,2 166
171 460 VOLANT STÉPHANE MB 41 FFTRI 04:38:43 25,2 167
172 666 BLANC JÉRÔME MC 57 ANDREST 04:39:22 25,1 168
173 559 CASTELLE CLAUDE ME 7 QUINT FONSEGRIVES 04:39:23 25,1 169
174 541 CHARON JEAN-PIERRE MC 58 PASS'CYCLO 04:39:23 25,1 170
175 498 BALDACCHINO BENJAMIN MB 42 LEZAT 04:39:39 25,1 171
176 608 GOURG BENOIT MC 59 NL 04:39:42 25,1 172
177 653 BROUSSET FRANÇOIS ME 8 UVAGG 04:40:03 25,1 173
178 710 GONSALVEZ SÉBASTIEN MB 43 LEZAT 04:40:16 25,0 174
179 455 MORIN AGNÈS FW1 4 TRIATHLON ATLANTIQUE CARQUEFOU 04:40:23 25,0 5
180 459 SUTRA BERNARD MD 36 NL 04:40:24 25,0 175
181 301 CAUCHOIS MARTIAL MD 37 NL 04:40:51 25,0 176
182 484 VOUILLEMY JEAN PIERRE ME 9 V.C. LE PASSAGE 04:41:25 24,9 177
183 450 DUFAU ALAIN MD 38 AS L'UNION 04:41:28 24,9 178
184 328 PELLEFIGUE ERIC MC 60 INTEGRALE BICYCLE 04:41:28 24,9 179
185 624 DEFEVER LAURENT MC 61 NL 04:41:29 24,9 180
186 636 ZELMAT LIONEL MA 29 MONTREJEAU CYCLO CLUB 04:41:31 24,9 181
187 302 TENSOU DENIS MC 62 NL 04:41:31 24,9 182
188 520 RIBES DANIEL MB 44 NL 04:41:33 24,9 183
189 438 CAU HENRI MD 39 NL 04:41:41 24,9 184
190 547 DEJEAN SÉBASTIEN MB 45 NL 04:41:59 24,9 185
191 327 HEILMANN MANFRED MC 63 NL 04:41:59 24,9 186
192 561 WRIGHT AIMÉE FW1 5 NL 04:41:59 24,9 6
193 623 CUBERTOU LAURENT MC 64 NL 04:42:06 24,9 187
194 434 GARRIGUES RENÉ MD 40 CYCLO BOULOGNE/GESSE 04:42:21 24,9 188
195 637 BLANQUIER DORIAN MB 46 MONTREJEAU CYCLO CLUB 04:42:22 24,9 189
196 378 MOLA PIERRE MC 65 V.C. CANTON ASPET 04:42:27 24,9 190
197 577 MORA JEAN-MARC MD 41 FRJEP LESPERON 04:42:33 24,8 191
198 513 SENTIS BERNARD MD 42 PORTET CYCLO CLUB 04:42:35 24,8 192
199 705 GUILBERT PATRICE MD 43 S O SEYSSOIS 04:42:53 24,8 193
200 335 PARMENTIER DIDIER MD 44 BRUGUIERES VELO CLUB 04:43:16 24,8 194
201 467 ORRAY PATRICK MD 45 LES CYCLOS DE LA CELLULOSE 04:43:39 24,7 195
202 342 LARRIEU JEAN-MICHEL MD 46 C.C. DE LA SAVE 04:43:55 24,7 196
203 429 BAQUE LAURENT MB 47 NL 04:44:15 24,7 197
204 549 LOUIS DAMIEN MB 48 NL 04:45:01 24,6 198
205 557 CHAUBARD CHRISTOPHE MB 49 LES CYCLOS DE TOURNEFEUILLE 04:45:03 24,6 199
206 649 LORENTE HENRI ME 10 HUOS 04:45:03 24,6 200
207 511 ETCHEVERRY NICOLAS MA 30 AS MATRA TOULOUSE 04:45:04 24,6 201
208 598 LAHOUSE JEAN-MARIE MD 47 NL 04:45:06 24,6 202
209 730 DRUILHE YVAN MC 66 LAVAUR VELO CLUB 04:46:19 24,5 203
210 550 MALESYS JEAN-DAMIEN MD 48 NL 04:46:33 24,5 204
211 597 COMBES ALEXIS MB 50 NL 04:46:54 24,5 205
212 728 GARCIA ALAIN MC 67 NL 04:47:23 24,4 206
213 426 FAGEDET PASCAL MC 68 CASTELNAU CYCLO CLUB 04:47:45 24,4 207
214 638 CASTET PIERRE MC 69 CO CARBONNE 04:47:46 24,4 208
215 610 BRUYERE FABRICE MB 51 C C DES ENCLAVES 04:47:48 24,4 209
216 478 BEYRIA YVES MC 70 SAUBENS CYCLO 04:47:48 24,4 210
217 396 CLAVERIE MICKAEL MA 31 RACING VALLEE ASPE 04:47:48 24,4 211
218 405 ANDRIEU GÉRARD MC 71 C.O. CARBONNE 04:47:53 24,4 212
219 500 VIDAL PATRICE MC 72 NL 04:48:05 24,4 213
220 389 BOUILLAC PATRICK MD 49 S.C. MONSEGURAIS 04:48:11 24,4 214
221 727 DESPAUX DENIS MB 52 NL 04:48:12 24,4 215
222 556 CHAUBARD SERGE MD 50 MCC 04:48:34 24,3 216
223 464 JEAN DANIEL ME 11 TONNEINS CYCLO 04:48:41 24,3 217
224 530 SAVOGNOL FRANCIS MD 51 C.C. PORTESIEN 04:49:05 24,3 218
225 583 DUILHÉ FRANCIS ME 12 VC SERIGNAC 04:49:26 24,3 219
226 376 ASTIÉ PATRICE MC 73 C.C. SIGEANAIS 04:49:33 24,2 220
227 305 SERVANT EMMANUEL MB 53 PASS'CYCLO 04:49:34 24,2 221
228 463 MONTEIL SERGE MD 52 TONNEINS CYCLO 04:49:36 24,2 222
229 486 DEFFRENNES DIMITRI MC 74 NL 04:49:38 24,2 223
230 522 LARREGOLA ERIC MB 54 COMMINGES TRIATHLON 04:50:01 24,2 224
231 407 BOURDIN EMMANUEL MB 55 NL 04:50:19 24,2 225
232 416 DIMBARBE MICHEL ME 13 AS PYRENEENNE 04:50:20 24,2 226
233 314 SENTENAC CHRISTOPHE MB 56 V.C. CANTON ASPET 04:50:21 24,2 227
234 318 DE MONLEON JEAN HUGUES MC 75 V.C. CANTON ASPET 04:50:21 24,2 228
235 491 AZALBERT MARC MB 57 C.C. SIGEANAIS 04:50:21 24,2 229
236 538 SALSON BERNARD ME 14 NL 04:50:22 24,2 230
237 640 BARTHE FRANÇOIS MB 58 COC CARBONNE 04:50:27 24,2 231
238 639 CIZOS DOMEJEAN CHRISTIAN MC 76 CO CARBONNE 04:50:28 24,2 232
239 461 MONTEIL ROSELYNE FW2 2 TONNEINS CYCLO 04:50:56 24,1 7
240 454 TROUILHET JACQUES MD 53 V.C. BLAYAIS 04:51:01 24,1 233
241 509 MOREAU RÉMI MC 77 NL 04:51:06 24,1 234
242 712 LEFEBVRE JEAN-MARS MC 78 VTT NOE 04:54:04 23,9 235
243 358 DERREZ PHILIPPE ME 15 U.S. PLAISANCE 04:55:00 23,8 236
244 570 GUINARD JEAN-PASCAL MB 59 NL 04:55:01 23,8 237
245 695 DIDIER NICOLAS MC 79 PAU TRIATHLON 04:55:06 23,8 238
246 377 HIPOLITO JOSÉ ME 16 C.V. MONTASTRUC 04:55:21 23,8 239
247 537 ROUGALLE JERÖME MC 80 CC LEZATOIS 04:55:21 23,8 240
248 687 GADIOU PIERRE MD 54 AS MEUDON 04:55:24 23,8 241
249 571 DURIEZ VIRGINIE FW3 1 NL 04:56:19 23,7 8
250 665 ROZÈS MICHEL MD 55 UV AUCH 04:56:19 23,7 242
251 602 BOUTANT SÉBASTIEN MC 81 AMBAZAC SPORTING CLUB 04:56:46 23,7 243
252 663 OUSTRIC JEROME MB 60 NL 04:56:47 23,7 244
253 529 MORANDIN SERGE MD 56 C.C. PORTESIEN 04:56:49 23,7 245
254 707 ZANGHERIE JEAN CLAUDE ME 17 E DU VOLVESTRE 04:57:37 23,6 246
255 388 MENEGHETTI PASCAL MC 82 CYCLO RANDONNEURS ALBIGEOIS 04:57:38 23,6 247
256 324 SABATIER BERTRAND MD 57 SAUBENS CYCLO 04:57:41 23,6 248
257 503 PALACIOS -FERNANDES JEAN-LUC ET ELVELINE MC 83 CYCLO ROUE LIBRE 04:58:03 23,6 249
258 579 HIRIBARREN JÉRÔME MB 61 FRJEP LESPERON 04:58:40 23,5 250
259 357 JOGO DANIEL ME 18 NL 04:58:59 23,5 251
260 312 VEGA CYRILLE MB 62 V.C. CANTON ASPET 04:59:46 23,4 252
261 587 BERLAND LUC MC 84 CYCLISME COMMINGES 04:59:47 23,4 253
262 648 DE MAGALHAES HENRIQUE MC 85 V C MAUVEZINOIS 04:59:54 23,4 254
263 596 VAN BOKHOVEN ANNELIEKE FW2 3 CYCLE SPORT GRONINGER 05:00:03 23,4 9
264 368 COSTES LAURENT MC 86 AS MATRA TOULOUSE 05:00:35 23,4 255
265 660 HIPOLITE FRDERIC MB 63 NL 05:00:55 23,3 256
266 465 MOIZO MICHEL ME 19 TONNEINS CYCLO 05:01:28 23,3 257
267 393 SAURIN FRANCIS ME 20 C.C. PINEUILH 05:01:45 23,3 258
268 456 CLARKE RICHARD MD 58 NL 05:02:55 23,2 259
269 593 POUGET CHRISTIAN MD 59 LES CYCLOS DE LA CELLULOSE 05:03:09 23,2 260
270 414 GÉREAUD CHRISTIAN MC 87 VELO PASSION PERIGORD 05:03:10 23,2 261
271 594 PLIQUE FRANÇOISE FW3 2 LES CYCLOS DE LA CELLULOSE 05:03:10 23,2 10
272 329 CHOLET YOHANN MA 32 V.C. BOCAGE VIRE 05:03:12 23,2 262
273 330 BAQUÉ SÉBASTIEN MC 88 V.C. CANTON ASPET 05:03:25 23,1 263
274 652 CAU DIDIER MC 89 NL 05:03:32 23,1 264
275 423 BOUSQUET FABRICE MB 64 NL 05:03:43 23,1 265
276 680 BOFFO ELIE ME 21 C C ST CAPRAIS 05:04:30 23,1 266
277 678 BAYLE GUY MC 90 THEZE CYCLISTE 05:04:32 23,1 267
278 690 BERRIEX BEGNAT MB 65 OGEU 05:05:18 23,0 268
279 306 SEURIN BERNARD ME 22 CAVIGNAC CLUB NORD GIRONDE 05:05:48 23,0 269
280 445 GALLY CLAUDE ME 23 NL 05:05:53 22,9 270
281 338 BARTHE PHILIPPE MC 91 LUCHON PYRENEES TEAM 05:06:40 22,9 271
282 601 MOISSET VINCENT MC 92 C C LAUNAGUET 05:06:41 22,9 272
283 586 BARRASTE JEAN-PIERRE MD 60 AGOUT VÉLO SPORT 05:06:41 22,9 273
284 404 GUIU BERNARD MC 93 NL 05:07:24 22,8 274
285 390 BOUTONNET DANIEL MD 61 CCV CASTELMAUROU 05:07:24 22,8 275
286 572 ROY STÉPHANE MB 66 NL 05:08:23 22,8 276
287 435 RESSIER GERARD ME 24 CPRS LABARTHE-LEZE 05:08:33 22,8 277
288 470 CAZALA DAMIEN MA 33 VTT CLUB AUROIS 05:09:00 22,7 278
289 451 ROUANET JEAN-PIERRE ME 25 TOULOUSE TRIATHLON 05:09:14 22,7 279
290 578 MARKHAM ANDREW MC 94 NL 05:10:25 22,6 280
291 356 CRESPEAU SÉVERINE FW1 6 NL 05:11:06 22,6 11
292 519 BOSC FABRICE MB 67 INTEGRALE L'ISLE JOURDAIN 05:11:53 22,5 281
293 409 CARPENE CHRISTIAN MD 62 NL 05:13:08 22,4 282
294 344 LAVAURE MICHEL MD 63 C.C. DE LA JALLE 05:13:09 22,4 283
295 531 POURTAU JEAN MICHEL MC 95 NL 05:16:08 22,2 284
296 505 CASTÉRAS HERVÉ MB 68 V.C. CANTON ASPET 05:17:08 22,1 285
297 540 JACQUES CHRISTIAN MD 64 NL 05:17:09 22,1 286
298 517 COUILLENS MICHEL ME 26 NL 05:18:50 22,0 287
299 588 LAFFORGUE BENOÎT MB 69 NL 05:18:55 22,0 288
300 337 PEREZ BERNARD ME 27 COLOGNE CYCLISTE 05:18:58 22,0 289
301 512 GAUBERT PHILIPPE MB 70 AC BAGNERES DE BIGORRE 05:19:02 22,0 290
302 331 BOULANGER ERIC MC 96 NL 05:19:08 22,0 291
303 523 PERLIE STÉPHANE MB 71 JEUNESSE SPORTIVE CUGNALAISE 05:19:57 21,9 292
304 418 PRESSEQ MICHEL ME 28 MI HTES PYRENEES 05:20:19 21,9 293
305 313 ALDEBERT GREGORY MA 34 NL 05:20:22 21,9 294
306 364 FLEMIN CHRISTIAN MC 97 AS MATRA TOULOUSE 05:21:13 21,9 295
307 307 BRUNETEAU JEAN-MICHEL ME 29 CAVIGNAC CLUB NORD GIRONDE 05:21:13 21,9 296
308 336 REYNES PIERRE MC 98 SAINT-LIEUX LES LAVAUR 05:21:15 21,9 297
309 345 THIMONIER RAYMOND ME 30 NL 05:21:25 21,8 298
310 428 NOGUES MICHEL MD 65 C.C. LOURDAIS 05:21:29 21,8 299
311 469 CAPUTO SERGE ME 31 ASPTT AGEN 05:23:33 21,7 300
312 566 BONZOM THOMAS MA 35 LUCHON LOURON CYCLISME 05:24:09 21,7 301
313 430 PORTES FRÉDÉRIC MB 72 U.C. DU VOLVESTRE 05:24:21 21,6 302
314 432 GUCHEREAU JEAN YVES ME 32 NL 05:25:43 21,6 303
315 343 DASSIEU MICHEL MD 66 SPLACH TRI ISLE JOURDAIN 05:29:22 21,3 304
316 443 GRIMAL DANIEL MD 67 NL 05:29:48 21,3 305
317 670 POUEYMIRO RICHARD MC 99 C C PONTAQUAIS 05:30:42 21,2 306
318 599 PINETTES JOÊL MC 100 NL 05:30:44 21,2 307
319 492 VALVERDE JOSEPH MC 101 RANDO CYCLO NARBONNAIS 05:31:07 21,2 308
320 542 MARTIN MICHEL ME 33 CYCLO EURANNAIS 05:33:22 21,1 309
321 311 KIESER MICHEL ME 34 NL 05:33:22 21,1 310
322 341 PAUL MARC MD 68 SAUBENS CYCLO 05:34:29 21,0 311
323 425 MACHEVIN CLAUDE MD 69 SAUBENS CYCLO 05:34:29 21,0 312
324 514 BONED JEAN-LOUIS MC 102 SAUBENS CYCLO 05:36:51 20,8 313
325 348 REYNES JEAN ME 35 NL 05:37:20 20,8 314
326 449 ARNÉ SERGE MC 103 NL 05:37:23 20,8 315
327 374 MEGEMONT JEAN-LUC MD 70 NL 05:38:57 20,7 316
328 333 AUXERRE ALAIN ME 36 AL ETOILE ST-ASTIER 05:38:58 20,7 317
329 482 LESCOS JEAN-BERNARD MD 71 U.C. LE HAILLAN-ST-MEDARD 05:39:49 20,7 318
330 462 RAMDANI MALIKA FW1 7 TEAU ANDOUARD 05:43:59 20,4 12
331 516 LLORET DENIS MC 104 NL 05:45:32 20,3 319
332 521 PAULY THOLE CATHY FW2 4 NL 05:45:33 20,3 13
333 672 FOSSARD LIONEL MC 105 CC LOURDAIS 05:45:33 20,3 320
334 483 LABORIE GEORGES ME 37 CAPITOLE VELO CASTELGINEST 05:45:34 20,3 321
335 444 GUILBERT JEAN-MARIE MD 72 SAUBENS CYCLO 05:46:03 20,3 322
336 372 MADIEU STÉPHANE MD 73 NL 05:46:03 20,3 323
337 321 ESCARE JEAN PIERRE ME 38 LES CYCLOS DE LA CELLULOSE 05:47:17 20,2 324
338 575 BABEL RENÉ ME 39 C C VALENTINE 05:59:05 19,5 325
339 347 FREDDO ODILE FW3 3 NL 05:59:08 19,5 14
340 568 OLLÉ GÉRARD ME 40 C C VALENTINE 05:59:28 19,5 326
341 310 POUMAREDE ALAIN MD 74 NL 06:00:37 19,5 327
342 448 AUMONT PASCAL MC 106 NL 06:03:20 19,3 328
343 655 DECAMPS MARC MB 73 PAUMESIEN 06:03:35 19,3 329
344 677 ESCOUBAS MARC MD 75 NL 06:03:45 19,3 330
345 679 SAINTIGNAN FRANCIS ME 41 NL 06:03:46 19,3 331
346 656 MANRESA JEROME MB 74 NL 06:04:56 19,2 332
347 662 BUZY HENRI MD 76 NL 06:05:16 19,2 333
348 536 TELMON PHILIPPE MC 107 8622 06:05:35 19,2 334
349 421 TELMON MARTINE FW2 5 C.C. LOURDAIS 06:05:49 19,2 15
350 634 SERIS BERNARD MD 77 SAUBUSSE SPORT CYCLO 06:08:51 19,0 335
351 346 THIMONIER DANIELLE FW3 4 NL 06:27:56 18,1 16
352 380 FERRÉ BERNARD ME 42 C.C. ATURIN 06:30:01 18,0 336
353 631 PILVESSE JACQUES ME 43 CYCLO RANDONNEURS MURETAINS 06:31:50 17,9 337
354 633 CAPELLE GÉRALD MD 78 NL 06:32:11 17,9 338
355 508 BARRERE NICOLE FW2 6 NL 06:39:00 17,6 17
356 584 BONZI JEAN-CLAUDE MC 108 NL 06:43:17 17,4 339
357 632 PALAO GILBERT MD 79 NL 07:00:05 16,7 340
358 539 DUCOUSSO RAYMOND ME 44 NL 08:00:57 14,6 341
359 381 GURY GILLES MD 80 TEAM CYCLISTE MARTRAIS 08:01:01 14,6 342
360 533 PLAS ALAIN ME 45 NL 08:01:11 14,6 343
361 534 LATCHURIE FRANCIS ME 46 NL 08:01:12 14,6 344
362 334 SUDERIE ROBERT MC 109 CSA MURET 08:07:41 14,4 345
363 325 ANGOT PASCAL MD 81 NL 08:07:42 14,4 346
364 373 GODEL JÉRÔME MC 110 NL 08:07:59 14,4 347
365 355 GINER BRUNO MD 82 SAUBENS CYCLO 08:10:16 14,3 348
366 585 COLLÉONI CHRISTIAN MD 83 NL 08:10:31 14,3 349
367 399 FRAYRET DANIEL ME 47 V.C. ARTIGUES DE LUSSAC 08:11:04 14,3 350
368 507 BARRERE PATRICK MD 84 NL 08:11:58 14,3 351
369 622 SAVAZZI SYLVAIN MB 75 NL 08:13:05 14,2 352
370 480 MERCIER JEAN-LOUIS MD 85 NL 08:22:25 14,0 353
371 308 BOUQUET PIERRE MD 0 ROUE LIBRE 14 00:00:00 Abd Abd
372 320 BRUNEL FRANÇOIS MC 0 CPRS PINS JUSTARET 00:00:00 Abd Abd
373 339 ROUX BRUNO MD 0 SAINT-PIERRE CYCLO CLUB 00:00:00 Abd Abd
374 359 SOURBADERE JOEL MC 0 U.S. PLAISANCE 00:00:00 Abd Abd
375 363 RAMON FRANCK MC 0 AS MATRA TOULOUSE 00:00:00 Abd Abd
376 365 ARRUFAT LIONEL MB 0 ASMT - EADS ASTRIUM 00:00:00 Abd Abd
377 367 NONY FRANCK MC 0 AS MATRA TOULOUSE 00:00:00 Abd Abd
378 375 GORGUES ANDRE MD 0 MONTREJEAU CYCLO CLUB 00:00:00 Abd Abd
379 386 LORGUEILLEUX SAMUEL MA 0 LE GUIDON CYCLO PYRÉNÉEN 00:00:00 Abd Abd
380 392 CABOT FRÉDÉRIC MB 0 NL 00:00:00 Abd Abd
381 394 SOUCHAL GILLES MD 0 MONPAZIER CYCLO BASTIDE 00:00:00 Abd Abd
382 395 CLAVEL JOEL ME 0 RANDO CYCLO BEAUMONTOISE 00:00:00 Abd Abd
383 401 GIGOUT JEAN CLAUDE ME 0 C.C. LARDENNE TOULOUSE 00:00:00 Abd Abd
384 412 CASTEROT JEAN-CLAUDE ME 0 C.C. LOURDAIS 00:00:00 Abd Abd
385 447 ABELLAN GEORGES MD 0 CPRS PINS JUSTARET 00:00:00 Abd Abd
386 457 VELILLA GÉRARD ME 0 NL 00:00:00 Abd Abd
387 458 VELILLA PATRICK MD 0 C.C. PIBRACAIS 00:00:00 Abd Abd
388 466 CONFOLENS JEAN-LUC ME 0 C.C. AZUN 00:00:00 Abd Abd
389 473 MAUDET DAVID MB 0 TUC TRIATHLON 00:00:00 Abd Abd
390 490 JUCHTZER HERVÉ MD 0 GUIDON CYCLO PYRÉNÉEN 00:00:00 Abd Abd
391 497 LAGASSE LIONEL MB 0 TEAN ANDOUARD ROTOR LA RENAUDIÉ 00:00:00 Abd Abd
392 535 GARCIA CLAUDE ME 0 MONTREJEAU CYCLO CLUB 00:00:00 Abd Abd
393 544 COMBIER CATHERINE MB 0 TEAM ANDOUARD 00:00:00 Abd Abd
394 545 SAUPIN FABRICE MC 0 TEAM ANDOUARD 00:00:00 Abd Abd
395 546 JUILLAQUET MANON FW1 0 TEAM ANDOUARD 00:00:00 Abd Abd
396 552 ROHRBACHER ANDRÉ MD 0 AC BAGNERES DE BIGORRE 00:00:00 Abd Abd
397 560 CLAVET PATRICK MD 0 NL 00:00:00 Abd Abd
398 569 POUSSOU ALAIN MD 0 MONTREJEAU CYCLO CLUB 00:00:00 Abd Abd
399 600 CARA OLIVIER MB 0 CC PYRENEEN 00:00:00 Abd Abd
400 618 BARBARICHE PIERRE MB 0 NL 00:00:00 Abd Abd
401 620 BERNARDIN J. LUC MD 0 GRATELOUP VC 00:00:00 Abd Abd
402 621 RION STÉPHANE MB 0 GRATELOUP VC 00:00:00 Abd Abd
403 671 ETHEVE LUCIEN ME 0 MONTREJEAU CYCLO CLUB 00:00:00 Abd Abd
404 719 ARMENGAUD JEAN NOEL MB 0 NL 00:00:00 Abd Abd
405 468 SANTAROSSA ROBERTO MD 0 SAUBENS CYCLO 02:47:23 Abd Abd
406 502 BILLIOT LAURENT MC 0 MURET CYCLISTE 03:41:37 Abd Abd
407 424 VERLYCK PHILIPPE MD 0 FONT ROMEU CYCLISME 03:47:44 Abd Abd
408 446 CHARLES YVES MC 0 SAUBENS CYCLO 04:44:25 Abd Abd
409 551 BORCA LUDOVIC MB 0 US BONNYCHONNE 04:53:08 Abd Abd
410 651 LAURENT STÉPHANE MB 0 R VTT 04:59:16 Abd Abd
411 501 JEAN JEAN ALAIN ME 0 V C BLAYAIS 05:18:34 Abd Abd
412 659 LARRIEU BERNARD ME 0 MAUVEZIN 05:18:42 Abd Abd